When you browse on this site, cookies collect data to enhance your experience and personalize the content and advertising you see.
Visit our Privacy Policy to learn more. By continuing to use the site, you agree to this use of cookies and data.
  • In Austria
  • List of Countries
  • For 7 days
  • Water Temperature
  • Weather Map
  • News
  • Weather Widgets
  • user-avatar
    Login

    Hourly Weather Dangriga

    Today, 17 February, Monday

    Time Temperature Precipitation Wind Pressure Humidity
    00:00 +23°C° 0 mm 4 mps 760 mmHg 97%
    01:00 +22°C° 0 mm 4 mps 760 mmHg 97%
    02:00 +22°C° 0 mm 3 mps 759 mmHg 98%
    03:00 +22°C° 0 mm 3 mps 759 mmHg 98%
    04:00 +22°C° 0 mm 3 mps 759 mmHg 98%
    05:00 +22°C° 0 mm 3 mps 759 mmHg 98%
    06:00 +22°C° 0 mm 3 mps 759 mmHg 98%
    07:00 +23°C° 0 mm 4 mps 760 mmHg 93%
    08:00 +26°C° 0 mm 4 mps 760 mmHg 88%
    09:00 +28°C° 0 mm 4 mps 761 mmHg 83%
    10:00 +29°C° 0.1 mm 4 mps 761 mmHg 75%
    11:00 +30°C° 0.1 mm 5 mps 760 mmHg 68%
    12:00 +32°C° 0.1 mm 5 mps 760 mmHg 60%
    13:00 +32°C° 0 mm 5 mps 760 mmHg 60%
    14:00 +32°C° 0 mm 5 mps 759 mmHg 60%
    15:00 +32°C° 0 mm 5 mps 759 mmHg 60%
    16:00 +29°C° 0 mm 5 mps 759 mmHg 72%
    17:00 +27°C° 0 mm 5 mps 759 mmHg 83%
    18:00 +25°C° 0 mm 5 mps 759 mmHg 94%
    19:00 +24°C° 0.2 mm 6 mps 759 mmHg 96%
    20:00 +24°C° 0.2 mm 6 mps 760 mmHg 97%
    21:00 +24°C° 0.2 mm 6 mps 760 mmHg 99%
    22:00 +24°C° 0.2 mm 6 mps 760 mmHg 99%
    23:00 +24°C° 0.2 mm 6 mps 760 mmHg 99%

    Tomorrow, 18 February, Tuesday

    Time Temperature Precipitation Wind Pressure Humidity
    00:00 +24°C° 0.2 mm 6 mps 759 mmHg 99%
    01:00 +24°C° 0.1 mm 6 mps 759 mmHg 99%
    02:00 +25°C° 0.1 mm 5 mps 759 mmHg 99%
    03:00 +25°C° 0.1 mm 5 mps 758 mmHg 99%
    04:00 +24°C° 0.3 mm 6 mps 759 mmHg 99%
    05:00 +24°C° 0.3 mm 6 mps 759 mmHg 99%
    06:00 +24°C° 0.3 mm 6 mps 759 mmHg 99%
    07:00 +24°C° 0.2 mm 6 mps 759 mmHg 98%
    08:00 +26°C° 0.2 mm 6 mps 760 mmHg 97%
    09:00 +27°C° 0.2 mm 6 mps 761 mmHg 96%
    10:00 +29°C° 0.1 mm 6 mps 760 mmHg 85%
    11:00 +30°C° 0.1 mm 6 mps 760 mmHg 75%
    12:00 +32°C° 0.1 mm 6 mps 759 mmHg 64%
    13:00 +32°C° 0 mm 6 mps 759 mmHg 63%
    14:00 +33°C° 0 mm 6 mps 758 mmHg 63%
    15:00 +33°C° 0 mm 6 mps 758 mmHg 62%
    16:00 +30°C° 0 mm 6 mps 758 mmHg 73%
    17:00 +28°C° 0 mm 5 mps 758 mmHg 84%
    18:00 +26°C° 0 mm 5 mps 759 mmHg 94%
    19:00 +26°C° 0.2 mm 5 mps 759 mmHg 96%
    20:00 +26°C° 0.2 mm 5 mps 760 mmHg 97%
    21:00 +24°C° 0.2 mm 6 mps 760 mmHg 99%
    22:00 +24°C° 0.4 mm 6 mps 760 mmHg 99%
    23:00 +24°C° 0.4 mm 6 mps 760 mmHg 99%

    Day after tomorrow, 19 February, Wednesday

    Time Temperature Precipitation Wind Pressure Humidity
    00:00 +26°C° 0.4 mm 7 mps 760 mmHg 99%
    01:00 +24°C° 0.2 mm 7 mps 760 mmHg 99%
    02:00 +24°C° 0.2 mm 6 mps 759 mmHg 98%
    03:00 +24°C° 0.2 mm 6 mps 759 mmHg 98%
    04:00 +24°C° 0.2 mm 6 mps 759 mmHg 98%
    05:00 +24°C° 0.2 mm 6 mps 760 mmHg 98%
    06:00 +24°C° 0.2 mm 6 mps 760 mmHg 99%
    07:00 +26°C° 0.1 mm 5 mps 761 mmHg 97%
    08:00 +27°C° 0.1 mm 5 mps 761 mmHg 95%
    09:00 +28°C° 0.1 mm 5 mps 762 mmHg 93%
    10:00 +29°C° 0 mm 4 mps 762 mmHg 80%
    11:00 +32°C° 0 mm 4 mps 762 mmHg 68%
    12:00 +33°C° 0 mm 4 mps 761 mmHg 56%
    13:00 +33°C° 0 mm 4 mps 761 mmHg 56%
    14:00 +33°C° 0 mm 4 mps 760 mmHg 56%
    15:00 +33°C° 0 mm 5 mps 760 mmHg 56%
    16:00 +30°C° 0 mm 5 mps 760 mmHg 68%
    17:00 +28°C° 0 mm 5 mps 760 mmHg 80%
    18:00 +26°C° 0 mm 5 mps 760 mmHg 91%
    19:00 +26°C° 0.6 mm 5 mps 761 mmHg 94%
    20:00 +25°C° 0.6 mm 5 mps 761 mmHg 96%
    21:00 +24°C° 0.6 mm 6 mps 761 mmHg 98%
    22:00 +24°C° 0.6 mm 6 mps 761 mmHg 98%
    23:00 +25°C° 0.6 mm 5 mps 761 mmHg 99%

    20 February, Thursday

    Time Temperature Precipitation Wind Pressure Humidity
    00:00 +25°C° 0.6 mm 5 mps 761 mmHg 99%
    01:00 +25°C° 0 mm 5 mps 761 mmHg 99%
    02:00 +25°C° 0 mm 4 mps 761 mmHg 98%
    03:00 +25°C° 0 mm 4 mps 760 mmHg 98%
    04:00 +24°C° 0.3 mm 3 mps 760 mmHg 98%
    05:00 +24°C° 0.3 mm 3 mps 761 mmHg 98%
    06:00 +24°C° 0.3 mm 3 mps 761 mmHg 98%
    07:00 +25°C° 1.1 mm 3 mps 762 mmHg 98%
    08:00 +26°C° 1.1 mm 4 mps 762 mmHg 97%
    09:00 +27°C° 1.1 mm 5 mps 762 mmHg 96%
    10:00 +27°C° 0.8 mm 5 mps 762 mmHg 95%
    11:00 +28°C° 0.8 mm 5 mps 762 mmHg 94%
    12:00 +28°C° 0.8 mm 5 mps 762 mmHg 93%
    13:00 +28°C° 0.3 mm 5 mps 761 mmHg 89%
    14:00 +29°C° 0.3 mm 4 mps 761 mmHg 84%
    15:00 +29°C° 0.3 mm 4 mps 760 mmHg 80%
    16:00 +28°C° 0.1 mm 4 mps 760 mmHg 85%
    17:00 +27°C° 0.1 mm 4 mps 760 mmHg 91%
    18:00 +26°C° 0.1 mm 4 mps 761 mmHg 96%
    19:00 +25°C° 0 mm 4 mps 761 mmHg 97%
    20:00 +25°C° 0 mm 3 mps 761 mmHg 98%
    21:00 +25°C° 0 mm 3 mps 762 mmHg 99%
    22:00 +25°C° 0.1 mm 3 mps 762 mmHg 99%
    23:00 +25°C° 0.1 mm 3 mps 762 mmHg 99%

    21 February, Friday

    Time Temperature Precipitation Wind Pressure Humidity
    00:00 +24°C° 0.1 mm 3 mps 762 mmHg 99%
    07:00 +25°C° 0 mm 3 mps 763 mmHg 92%
    08:00 +27°C° 0 mm 3 mps 763 mmHg 86%
    09:00 +28°C° 0 mm 3 mps 764 mmHg 79%
    10:00 +29°C° 0.2 mm 4 mps 764 mmHg 78%
    11:00 +29°C° 0.2 mm 4 mps 764 mmHg 76%
    12:00 +30°C° 0.2 mm 4 mps 763 mmHg 75%
    13:00 +30°C° 0.1 mm 4 mps 763 mmHg 75%
    14:00 +30°C° 0.1 mm 4 mps 762 mmHg 75%
    15:00 +30°C° 0.1 mm 5 mps 762 mmHg 75%
    16:00 +28°C° 0.4 mm 4 mps 762 mmHg 82%
    17:00 +27°C° 0.4 mm 4 mps 762 mmHg 90%
    18:00 +25°C° 0.4 mm 4 mps 762 mmHg 97%
    19:00 +25°C° 0.9 mm 4 mps 763 mmHg 97%
    20:00 +25°C° 0.9 mm 4 mps 763 mmHg 97%
    21:00 +23°C° 0.9 mm 4 mps 764 mmHg 98%
    22:00 +24°C° 0.1 mm 3 mps 764 mmHg 98%
    23:00 +24°C° 0.1 mm 2 mps 764 mmHg 98%

    22 February, Saturday

    Time Temperature Precipitation Wind Pressure Humidity
    00:00 +23°C° 0.1 mm 2 mps 764 mmHg 98%
    01:00 +23°C° 0.5 mm 2 mps 764 mmHg 98%
    02:00 +23°C° 0.5 mm 2 mps 763 mmHg 98%
    03:00 +23°C° 0.5 mm 2 mps 763 mmHg 99%
    04:00 +23°C° 0.9 mm 2 mps 763 mmHg 99%
    05:00 +23°C° 0.9 mm 2 mps 763 mmHg 99%
    06:00 +22°C° 0.9 mm 3 mps 764 mmHg 99%
    07:00 +24°C° 0.6 mm 3 mps 764 mmHg 97%
    08:00 +25°C° 0.6 mm 3 mps 765 mmHg 94%
    09:00 +26°C° 0.6 mm 4 mps 765 mmHg 92%
    10:00 +28°C° 0.1 mm 4 mps 765 mmHg 80%
    11:00 +30°C° 0.1 mm 4 mps 764 mmHg 68%
    12:00 +32°C° 0.1 mm 4 mps 764 mmHg 56%
    13:00 +33°C° 0 mm 4 mps 763 mmHg 53%
    14:00 +33°C° 0 mm 4 mps 762 mmHg 50%
    15:00 +34°C° 0 mm 4 mps 762 mmHg 47%
    16:00 +30°C° 0 mm 5 mps 762 mmHg 59%
    17:00 +28°C° 0 mm 6 mps 762 mmHg 71%
    18:00 +26°C° 0 mm 6 mps 762 mmHg 83%
    19:00 +24°C° 0.8 mm 6 mps 763 mmHg 87%
    20:00 +23°C° 0.8 mm 7 mps 763 mmHg 92%
    21:00 +23°C° 0.8 mm 7 mps 763 mmHg 97%
    22:00 +23°C° 0.8 mm 7 mps 763 mmHg 97%
    23:00 +23°C° 0.8 mm 7 mps 763 mmHg 97%
    Show more